Location: Cubitt Town
(51.4833°N, 0.0000°E)
Time: 03:39:19
(UTC+00:00)

Cosmos 2082 Rocket - Pass Details

Date: 15 May 2026
Orbit: 832 x 852 km, 71.0° (Epoch: 8 June)

Event Time Altitude Azimuth Distance (km) Brightness Sun altitude
Rises 20:37:48 0° 213° (SSW) 3,410 5.2 -7.2°
Reaches altitude 10° 20:40:15 10° 214° (SW) 2,478 4.5 -7.5°
Maximum altitude 20:45:57 78° 301° (WNW) 877 2.5 -8.2°
Drops below altitude 10° 20:51:41 10° 29° (NNE) 2,487 4.9 -8.8°
Sets 20:54:09 0° 31° (NNE) 3,424 5.6 -9.0°
